Regional Weather Roundup
Issued by NWS Columbia, SC

Home | Current Version | Previous Version | Text Only | Print | Product List | Glossary On
Versions: 1 2 3 4 5 6 7 8 9 10 11 12 13 14 15 16 17 18 19 20 21 22 23 24 25 26 27 28 29 30 31 32 33 34 35 36 37 38 39 40 41 42 43 44 45 46 47 48 49 50
000
ASUS42 KCAE 230710
RWRCAE
REGIONAL WEATHER ROUNDUP
NATIONAL WEATHER SERVICE COLUMBIA SC
200 AM EST MON JAN 23 2017

NOTE: "FAIR" INDICATES FEW OR NO CLOUDS BELOW 12,000 FEET WITH NO
SIGNIFICANT WEATHER AND/OR OBSTRUCTIONS TO VISIBILITY.

NOT ALL STATIONS ARE QUALITY CONTROLLED BY THE NATIONAL
WEATHER SERVICE. USE DATA WITH CAUTION...ESPECIALLY
DEWPOINT OBSERVATIONS.

SCZ001>056-GAZ040-063>065-077-230800-
...UPSTATE SOUTH CAROLINA...

CITY           SKY/WX    TMP DP  RH WIND       PRES   REMARKS
ANDERSON       CLOUDY    52  46  80 SW12      29.24S
LIBERTY        CLOUDY    51  48  90 SW7       29.22F
SPARTANBURG    CLOUDY    52  46  82 SW14G20   29.21S
CLEMSON        CLOUDY    53  46  77 CALM      29.24F
GREENVILLE     CLOUDY    53  48  83 SW13G24   29.23S
GREENWOOD      CLEAR     49  45  86 SW10      29.26F
GREER          CLOUDY    51  48  89 SW15      29.21F
ROCK HILL      LGT RAIN  56  55  97 CALM      29.18F
CHESTER        LGT RAIN  55  55 100 SW15G28   29.20R
LAURENS        CLOUDY    52  46  82 SW9G24    29.24S


...CENTRAL SOUTH CAROLINA...

CITY           SKY/WX    TMP DP  RH WIND       PRES   REMARKS
COLUMBIA APT   PTCLDY    55  49  80 SW12G21   29.26R
COLUMBIA OWENS PTCLDY    56  48  74 SW13G21   29.28R
MCENTIRE ANGB  MOCLDY    55  50  83 SW12G22   29.27R
ORANGEBURG     PTCLDY    54  48  80 SW16      29.30R
SUMTER SHAW    PTCLDY    55  50  82 SW18G32   29.24R
NEWBERRY       MOSUNNY   52  48  87 SW13      29.27F
AIKEN          FAIR      50  46  87 SW10      29.32S
BARNWELL       FAIR      55  50  82 SW8       29.31S
MANNING        PTSUNNY   55  43  62 SW9G21    29.30R
CAMDEN         CLOUDY    59  55  88 SW10G23   29.23S
LANCASTER      CLOUDY    57  57 100 S13       29.19F
WINNSBORO      CLOUDY    54  50  87 SW13G20   29.25R


...EASTERN AND COASTAL SOUTH CAROLINA...

CITY           SKY/WX    TMP DP  RH WIND       PRES   REMARKS
MYRTLE BEACH   PTCLDY    64  61  88 SW12G21   29.27S
N MYRTLE BCH   MOCLDY    62  61  96 SW20G28   29.24F
CONWAY         CLOUDY    63  61  94 S8        29.25S FOG
MARION         CLOUDY    59  59 100 SE5       29.24S
HARTSVILLE     CLOUDY    61  57  88 SW6       29.22S
FLORENCE       MOCLDY    62  61  96 S9        29.23F
DARLINGTON     CLOUDY    61  59  93 SE8       29.23S
CHARLESTON APT CLEAR     57  49  74 W14G22    29.34R
MOUNT PLEASANT FAIR      57  52  82 SW9G17    29.34R
WALTERBORO     SUNNY     54  50  87 W10       29.34S
BEAUFORT       CLOUDY    55  49  80 SW8       29.35F


...EASTERN GEORGIA...

CITY           SKY/WX    TMP DP  RH WIND       PRES   REMARKS
AUGUSTA BUSH F MOCLDY    54  48  80 S5        29.30S
AUGUSTA DANIEL PTCLDY    53  46  77 SW7       29.30S
THOMSON        PTCLDY    53  51  91 SW6       29.33F
WASHINGTON     FAIR      52  50  93 S5        29.27F
CLAXTON        FAIR     N/A N/A N/A CALM      29.35F
SYLVANIA       MOSUNNY  N/A N/A N/A SW3       29.34F
STATESBORO     CLOUDY    55  51  87 SW7       29.33F
SAVANNAH       PTCLDY    55  48  77 SW7       29.36F


...SOUTHERN NORTH CAROLINA...

CITY           SKY/WX    TMP DP  RH WIND       PRES   REMARKS
CHARLOTTE      LGT RAIN  55  52  89 N7        29.17F FOG
MONROE         LGT RAIN  59  56  89 S8        29.17R
ROCKINGHAM     CLOUDY    59  59 100 E12G18    29.22S
RUTHERFORDTON  HVY RAIN  54  54 100 SE3       29.19S
ASHEVILLE      HVY RAIN  52  49  89 S10       29.19S FOG

$$



USA.gov is the U.S. government's official web portal to all federal, state and local government web resources and services.